Location: *
(44.3925°N, 5.4708°E)
Time: 20:21:51
(UTC+00:00)

NOSS 3-4 (A) - Pass Details

Date: 18 September 2019
Orbit: 910 x 1303 km, 63.4° (Epoch: 21 September)

Event Time Altitude Azimuth Distance (km) Brightness Sun altitude
Rises 19:49:52 0° 320° (NW) 3,864 7.8 -22.5°
Reaches altitude 10° 19:52:27 10° 316° (NW) 2,960 7.0 -22.9°
Maximum altitude 19:59:22 58° 240° (WSW) 1,347 4.3 -24.0°
Enters shadow 20:03:35 27° 172° (S) 2,135 4.9 -24.6°
